Dewpoint
14 12 10 10 10 10 10 10 10 10 9 8 8 7 5 5 4 3 5 5 5 5 5 6 6 6 7 7 6 6 6 6 5 5 6 7 9 10 11 11 9 12 8
15 12 11 11 11 11 11 11 11 10 10 9 9 8 7 6 6 5 5 8 7 7 6 6 7 7 7 6 6 6 5 5 6 5 6 9 10 10 11 11 9 8 8
15 12 11 11 11 11 11 11 11 11 10 10 9 9 8 8 7 7 6 7 7 7 8 12 12 6 7 7 7 6 6 6 6 5 6 13 13 11 11 11 11 8 8
15 13 11 11 11 11 11 11 11 10 10 10 9 9 9 8 8 8 8 7 8 7 9 9 8 7 6 7 7 7 6 5 6 6 12 13 13 11 11 11 11 9 8
15 14 11 11 11 11 10 10 10 10 10 10 10 10 9 9 9 9 9 9 8 9 10 10 9 8 8 7 6 5 6 6 6 8 12 13 13 12 10 10 11 10 8
15 13 11 11 11 11 10 10 10 10 10 10 10 10 10 10 10 10 9 9 9 10 11 11 9 9 8 8 9 8 6 5 6 12 12 12 12 10 10 11 11 11 9
13 12 11 11 11 11 11 11 11 11 10 10 10 10 10 10 10 10 10 9 9 8 8 9 9 9 9 9 8 8 8 6 8 11 11 12 12 7 7 11 11 11 10
13 12 11 11 11 11 11 11 10 10 10 10 11 11 11 11 11 11 11 11 11 10 10 10 9 8 8 9 9 9 8 7 11 12 12 11 10 7 7 8 11 11 10
13 12 12 12 11 11 10 10 9 8 9 10 10 10 10 10 10 10 10 9 8 7 7 6 7 9 10 9 9 8 7 7 12 12 11 12 6 6 7 7 7 10 11
12 12 12 11 10 9 9 8 8 6 5 4 3 0 -0 -3 -5 -4 -2 -4 -5 -5 -4 -5 -3 -1 3 6 9 9 9 8 10 10 11 8 7 6 8 10 10 9 10
13 12 11 10 8 7 7 6 3 -3 -10 -13 -15 -16 -16 -18 -17 -16 -16 -14 -13 -15 -12 -13 -12 -11 -9 -8 -5 -3 1 5 4 10 10 9 9 9 10 10 10 10 9
12 12 11 9 7 7 4 -1 -9 -16 -17 -18 -18 -18 -17 -17 -17 -17 -17 -15 -15 -15 -15 -15 -16 -15 -13 -5 -2 -8 -1 -12 -1 0 6 10 11 11 12 11 11 10 10
12 11 10 8 7 4 -1 -10 -17 -16 -16 -16 -16 -15 -15 -15 -16 -16 -16 -17 -17 -17 -17 -18 -18 -19 -18 -18 -17 -16 -16 -13 -7 -0 -9 -4 10 11 11 12 12 11 10
12 11 8 6 5 1 -6 -15 -15 -15 -14 -14 -14 -14 -14 -14 -15 -16 -17 -18 -19 -19 -20 -21 -22 -23 -23 -23 -23 -21 -18 -16 -13 1 -13 -12 -9 6 10 10 11 11 10
12 10 8 5 3 -1 -10 -13 -12 -13 -12 -12 -12 -13 -14 -14 -15 -17 -18 -20 -21 -22 -24 -26 -27 -28 -29 -28 -28 -28 -26 -23 -17 2 -12 -14 -12 -10 -6 7 9 8 10
12 10 7 4 2 -2 -9 -10 -11 -11 -11 -11 -12 -13 -13 -14 -16 -17 -19 -22 -24 -26 -27 -25 -23 -20 -19 -20 -22 -25 -25 -11 -15 -7 4 -7 -10 -11 -9 -7 -1 3 6
11 10 7 4 2 -3 -8 -8 -9 -9 -10 -10 -11 -12 -13 -14 -16 -18 -21 -23 -24 -22 -18 -14 -13 -12 -12 -13 -14 -15 -11 -9 -4 -1 3 2 1 -5 -3 -6 -5 -5 -2
11 9 7 4 2 -3 -6 -7 -8 -9 -9 -10 -11 -12 -13 -14 -15 -17 -20 -22 -20 -15 -12 -11 -11 -12 -13 -13 -12 -8 -6 -3 -6 -2 -1 -1 -0 0 -0 -1 -2 -2 -2
11 9 7 5 2 -2 -5 -6 -7 -8 -8 -9 -10 -11 -12 -14 -16 -19 -20 -19 -15 -12 -10 -10 -12 -12 -12 -8 -7 -10 -6 -2 -3 -2 -4 -4 -5 -6 -8 -6 -3 -1 0
10 9 8 5 2 -2 -5 -5 -5 -5 -6 -7 -8 -10 -12 -14 -16 -18 -19 -16 -12 -11 -10 -9 -10 -12 -15 -12 -2 1 0 -0 0 -2 -4 -5 -13 -16 -17 -18 -17 -12 -12
10 9 8 5 2 -1 -2 -0 -1 -3 -4 -5 -7 -9 -11 -13 -15 -17 -16 -14 -11 -10 -9 -9 -11 -13 -16 -18 -1 0 2 1 0 -1 -3 -4 -15 -11 -17 -18 -17 -13 -6
10 9 8 7 4 1 2 2 2 1 -1 -2 -6 -7 -9 -11 -14 -16 -15 -13 -11 -9 -9 -10 -12 -7 -14 -19 -4 -4 -3 0 0 -2 -2 -5 -17 -10 -10 -13 -15 -14 -13
10 9 9 7 6 3 3 3 3 2 2 0 -3 -6 -7 -9 -12 -15 -14 -12 -10 -9 -10 -10 -12 -16 -6 -16 -19 -6 -4 -5 -5 -2 -2 -4 -17 -9 -17 -8 -12 -12 -13
9 10 8 7 6 5 4 3 2 1 1 1 -0 -3 -6 -8 -11 -14 -14 -12 -10 -10 -10 -12 -15 -17 -18 -12 -10 -16 -15 -10 -4 -5 -5 -5 -18 -14 -22 -12 -11 -15 -18
9 9 8 7 6 5 4 3 2 2 1 2 1 -4 -5 -7 -11 -13 -13 -11 -11 -12 -13 -15 -16 -18 -18 -18 -17 -14 -13 -4 -12 -6 -7 -7 -8 -13 -16 -16 -21 -11 -13
8 9 8 7 6 5 3 3 3 2 2 1 -0 -1 -3 -6 -10 -12 -12 -11 -13 -14 -15 -15 -15 -15 -16 -17 -17 -16 -15 -7 -6 -6 -7 -7 -8 -8 -6 -7 -7 -6 -8
Wind_Speed
19 21 20 18 16 15 14 14 13 12 11 10 9 9 8 8 8 8 8 9 8 8 7 7 6 6 5 4 3 2 1 1 2 2 3 4 5 5 3 5 7 6 8
21 22 21 18 16 14 14 14 14 13 12 10 9 8 8 8 8 7 7 7 7 6 6 5 5 5 4 4 3 3 2 2 1 2 3 4 5 4 3 4 7 6 7
21 23 21 18 15 15 14 14 14 13 11 11 10 9 8 7 6 6 6 5 5 5 4 5 4 3 4 3 3 3 3 2 1 1 2 3 2 2 1 2 6 7 8
21 21 21 19 17 16 15 14 13 12 11 10 9 8 7 6 6 5 5 5 5 4 4 4 5 4 3 3 3 3 3 3 2 1 3 1 2 3 1 1 4 6 7
20 20 21 21 18 17 15 13 12 10 9 8 7 6 5 4 4 5 5 5 5 5 6 6 5 5 5 5 5 4 4 4 3 2 1 2 1 4 1 1 2 4 5
23 22 21 19 18 16 14 13 12 10 9 8 7 7 7 7 6 6 6 6 6 7 6 6 7 7 6 7 7 6 5 5 4 3 3 4 2 4 3 2 2 2 4
24 23 20 19 17 16 15 13 11 10 9 9 8 8 7 6 6 6 6 6 6 6 7 7 8 8 8 8 8 8 7 6 2 4 4 5 6 5 5 5 4 2 3
23 22 21 19 18 16 14 13 11 10 9 9 9 7 6 6 6 6 5 6 6 6 6 7 8 8 9 9 9 10 9 7 3 4 4 4 10 6 6 7 6 5 4
22 22 21 20 19 16 14 13 11 10 10 9 8 8 8 6 6 5 6 6 6 5 6 6 6 6 7 8 9 9 8 8 4 3 2 9 7 7 7 8 8 7 6
21 23 22 21 19 17 15 14 12 11 11 10 9 8 7 6 6 6 7 7 7 7 8 7 7 7 7 7 8 7 6 5 5 3 4 10 8 9 8 8 8 10 9
22 22 22 21 20 18 17 16 14 13 11 10 9 7 6 5 4 4 4 4 4 5 6 7 7 8 8 9 10 10 8 6 5 4 6 9 9 9 10 10 11 10 11
21 23 23 22 22 20 19 17 15 14 13 11 9 7 6 4 3 2 2 3 3 3 4 5 5 6 6 5 6 7 6 9 5 5 12 11 10 10 10 11 12 11 11
21 24 25 24 23 21 19 17 16 15 13 11 10 9 7 5 4 2 2 2 2 2 2 3 3 4 4 5 6 6 7 6 6 4 15 14 13 13 12 12 11 12 11
25 28 28 27 25 23 19 18 17 16 15 13 12 9 8 6 5 4 3 2 2 1 1 1 2 2 3 3 4 5 5 4 4 1 12 12 15 16 17 15 13 13 13
27 28 30 29 26 24 21 20 19 18 17 15 12 10 8 6 5 4 3 3 2 2 1 1 2 3 3 3 3 2 4 4 2 1 9 10 13 15 19 19 18 15 14
27 28 31 30 27 25 22 22 21 20 17 14 13 11 9 7 6 4 3 2 2 2 3 3 4 4 4 3 3 3 2 1 0 2 1 7 9 11 14 17 20 20 17
29 28 31 31 29 26 24 23 21 19 17 16 13 12 10 9 7 5 4 4 4 4 3 3 4 4 3 3 3 3 2 1 2 3 4 3 6 8 8 12 13 15 17
29 31 33 33 31 29 26 25 22 21 19 16 15 14 12 10 8 8 6 5 4 4 3 2 3 3 3 3 2 1 0 1 2 2 2 2 3 5 8 7 9 10 10
31 31 34 35 33 30 28 26 25 23 20 19 16 15 13 12 10 9 8 8 6 4 3 2 2 3 3 2 2 1 1 2 2 2 3 4 4 5 6 7 8 10 11
31 30 33 35 34 32 30 29 26 24 21 19 17 16 14 13 11 10 9 8 7 6 4 2 2 3 2 1 2 2 2 2 3 3 4 5 7 8 8 8 7 8 10
31 32 36 38 37 36 33 30 26 24 22 20 19 17 15 14 13 12 11 9 7 6 3 1 2 3 3 1 2 1 2 1 1 2 5 5 9 9 9 9 7 5 7
32 34 37 36 37 36 30 25 23 22 21 19 20 19 18 16 14 12 11 9 7 5 2 1 1 2 3 2 2 3 4 3 2 2 2 5 9 9 9 10 8 8 7
32 35 36 37 38 35 29 26 23 20 20 20 20 20 19 16 14 13 11 10 8 5 3 2 1 0 1 4 3 3 3 1 3 2 1 4 10 8 10 8 8 8 10
28 29 33 35 36 32 30 28 30 27 23 19 19 20 19 17 16 14 12 10 8 6 4 2 1 1 1 1 2 2 2 2 1 2 3 5 11 8 10 7 9 10 10
23 28 31 33 34 34 36 30 30 24 21 21 20 21 20 19 17 14 11 9 7 4 3 1 1 3 3 3 2 1 1 2 2 1 5 8 10 10 11 4 9 10 9
19 24 28 33 34 34 37 31 30 28 28 24 22 21 19 17 15 14 11 9 7 5 4 3 3 3 3 2 1 1 2 2 2 3 5 11 10 8 8 10 8 9 13
Wind_Direction
165 177 177 177 175 169 169 170 175 175 176 173 170 161 151 146 148 146 141 137 142 146 150 154 158 161 165 168 162 176 171 273 304 342 350 354 354 357 14 13 12 359 3
162 173 177 179 174 171 173 173 177 179 180 181 180 177 170 166 160 151 150 150 148 151 151 155 165 170 180 187 187 194 194 239 276 342 359 14 357 359 359 21 18 11 19
160 170 176 177 176 175 175 177 178 180 186 192 195 190 183 179 175 171 167 166 166 169 166 159 167 189 198 202 202 207 209 235 269 339 17 49 321 337 335 22 19 20 19
158 163 174 177 180 178 180 183 185 191 196 198 201 200 199 195 187 188 188 185 194 193 196 207 212 213 222 237 245 247 251 267 275 307 25 13 359 316 7 7 19 29 26
160 161 177 183 183 184 187 192 197 199 201 204 207 207 207 210 202 198 203 204 209 221 209 221 235 236 242 253 262 262 265 270 282 343 296 303 128 295 322 315 355 24 32
169 176 180 182 184 187 188 194 195 198 202 207 208 209 209 210 209 213 211 212 214 214 224 228 234 238 241 247 255 263 269 271 281 298 307 316 345 273 276 282 294 355 18
175 178 179 181 185 186 190 190 194 197 203 209 209 209 212 210 208 212 222 225 229 236 243 246 247 249 248 249 254 257 261 270 280 295 307 313 298 289 287 282 282 316 349
180 180 178 181 186 188 189 190 191 196 203 209 213 216 220 219 226 229 230 235 238 241 247 252 253 255 258 259 260 263 264 264 308 280 290 306 272 279 284 283 281 292 306
190 182 180 184 186 186 187 188 191 196 204 211 215 216 218 226 239 242 245 248 253 254 254 255 261 262 258 257 262 266 268 267 254 270 318 239 279 271 271 273 272 273 285
187 185 185 188 187 187 187 188 188 192 199 204 206 210 220 222 233 248 255 256 258 256 257 257 257 259 262 266 266 266 277 283 275 280 273 270 277 266 262 268 285 271 268
189 188 188 188 190 189 189 187 187 192 194 195 197 198 203 210 222 242 265 265 271 280 274 270 266 264 264 264 266 269 272 268 267 281 259 277 274 272 267 271 284 287 263
188 189 193 193 193 188 191 187 190 187 187 185 179 180 184 191 207 248 277 282 286 290 293 292 289 281 268 271 281 271 260 263 265 260 268 268 274 272 271 274 279 277 263
192 196 196 195 194 193 193 188 185 183 180 178 176 178 181 185 191 216 245 265 295 306 311 321 325 318 309 291 283 273 275 267 260 247 262 254 253 258 268 267 270 272 268
197 202 202 199 197 197 194 187 185 181 180 181 184 184 184 187 194 193 203 215 228 253 291 345 349 355 345 331 322 316 304 285 266 238 271 262 253 255 257 264 268 266 263
201 200 201 201 199 200 194 188 185 184 186 188 187 186 188 193 197 200 197 201 186 164 125 74 51 38 29 3 354 346 329 312 287 167 279 272 264 261 262 260 261 265 265
203 200 202 201 202 201 195 192 190 190 190 190 191 191 191 194 186 181 177 170 139 121 104 85 62 44 26 10 356 348 341 35 129 150 107 304 287 275 268 266 265 267 270
206 200 204 202 203 201 198 195 193 194 195 197 198 195 193 190 185 176 166 161 148 121 94 72 54 31 11 349 335 328 3 39 58 88 74 62 357 315 303 283 281 278 272
206 201 203 204 204 200 197 197 198 199 200 199 199 196 194 193 190 185 180 174 162 139 108 66 43 25 359 343 329 4 86 88 70 58 61 48 30 27 344 308 293 288 282
206 201 202 204 203 199 199 198 199 200 198 199 199 199 196 189 186 181 178 177 168 148 125 86 45 35 15 11 347 258 159 124 95 60 14 5 349 338 348 325 312 302 295
206 201 201 204 202 200 199 200 198 196 198 199 198 199 195 191 187 182 180 175 165 159 153 133 29 13 15 71 93 122 100 90 89 57 28 19 355 347 341 330 325 324 295
204 199 201 203 202 200 197 194 192 192 194 195 198 197 194 191 187 183 181 177 171 167 160 119 39 22 13 82 148 134 200 4 53 45 23 13 8 1 351 346 342 343 340
203 200 202 200 203 201 196 189 190 190 190 193 196 197 199 197 193 190 188 185 183 179 165 117 33 15 358 43 175 212 213 235 234 307 47 7 354 356 353 352 353 352 346
207 203 200 199 203 198 190 184 180 177 180 185 191 195 197 197 193 191 190 188 187 188 201 229 292 11 41 359 48 154 241 220 297 234 340 341 343 348 352 355 350 350 345
212 207 201 199 200 194 189 187 191 190 186 187 187 195 195 196 195 195 193 190 192 197 211 214 204 205 150 93 6 53 146 192 254 223 285 317 337 349 345 337 343 341 339
213 208 202 198 196 194 196 194 192 184 182 182 186 193 194 194 193 192 189 188 191 197 197 198 190 172 178 173 177 145 86 31 4 304 278 299 334 332 338 320 337 343 339
212 206 201 199 197 196 202 195 191 184 183 182 187 185 185 187 187 188 187 187 187 185 180 174 170 166 156 150 136 108 103 119 350 18 319 326 320 337 330 345 346 343 335
Height
1510 1508 1513 1516 1519 1521 1522 1524 1526 1528 1529 1530 1531 1530 1530 1531 1531 1531 1532 1532 1532 1532 1531 1532 1532 1532 1532 1532 1532 1533 1532 1532 1532 1531 1531 1531 1531 1530 1530 1528 1528 1529 1526
1508 1508 1512 1515 1518 1520 1522 1523 1526 1528 1529 1530 1531 1531 1531 1531 1531 1531 1531 1532 1532 1532 1532 1532 1532 1532 1532 1532 1532 1532 1531 1531 1532 1531 1531 1530 1531 1530 1529 1528 1528 1527 1526
1506 1508 1511 1515 1518 1520 1522 1523 1525 1527 1528 1530 1531 1531 1531 1531 1531 1531 1531 1532 1532 1532 1532 1532 1532 1532 1532 1531 1531 1531 1531 1531 1531 1531 1530 1533 1533 1530 1528 1528 1528 1527 1526
1505 1508 1511 1515 1517 1519 1521 1523 1525 1526 1528 1529 1530 1531 1531 1531 1531 1531 1531 1531 1532 1532 1531 1532 1532 1532 1532 1531 1531 1531 1531 1530 1530 1530 1533 1532 1532 1529 1528 1528 1527 1527 1526
1505 1508 1510 1513 1516 1518 1520 1522 1524 1525 1526 1528 1529 1530 1530 1530 1530 1531 1531 1531 1531 1531 1532 1531 1531 1531 1531 1531 1531 1531 1530 1530 1530 1530 1534 1532 1532 1529 1528 1528 1527 1526 1526
1505 1507 1509 1512 1515 1517 1520 1522 1523 1524 1525 1527 1528 1529 1529 1530 1529 1530 1530 1530 1530 1530 1530 1530 1529 1529 1529 1529 1529 1530 1530 1530 1530 1532 1532 1531 1531 1528 1527 1527 1527 1527 1526
1503 1506 1509 1512 1515 1517 1518 1521 1522 1523 1525 1526 1527 1528 1529 1529 1529 1529 1529 1529 1529 1529 1529 1529 1528 1528 1528 1528 1528 1528 1528 1529 1530 1532 1532 1532 1530 1528 1528 1527 1527 1526 1526
1503 1505 1508 1511 1514 1516 1518 1520 1521 1523 1524 1525 1526 1527 1528 1528 1529 1528 1527 1528 1528 1527 1527 1527 1527 1526 1527 1527 1527 1527 1527 1527 1529 1530 1530 1531 1527 1527 1526 1526 1526 1526 1526
1502 1504 1507 1509 1512 1514 1517 1518 1520 1522 1523 1525 1526 1527 1526 1526 1528 1528 1527 1527 1527 1526 1526 1525 1525 1525 1525 1526 1525 1526 1525 1526 1527 1528 1528 1526 1524 1525 1525 1525 1525 1525 1525
1501 1503 1505 1508 1510 1513 1515 1517 1518 1520 1522 1524 1525 1526 1527 1526 1526 1526 1527 1526 1526 1525 1525 1524 1523 1524 1524 1524 1524 1524 1524 1525 1525 1526 1527 1522 1522 1522 1523 1523 1524 1524 1524
1500 1502 1503 1506 1508 1510 1513 1515 1516 1518 1520 1522 1524 1525 1526 1525 1524 1525 1525 1525 1524 1524 1524 1523 1522 1522 1522 1521 1522 1522 1523 1523 1523 1524 1524 1520 1520 1520 1521 1521 1521 1522 1522
1498 1499 1502 1504 1506 1508 1510 1512 1514 1517 1518 1520 1521 1523 1524 1524 1524 1523 1523 1524 1523 1522 1522 1522 1521 1520 1520 1520 1520 1519 1520 1519 1520 1521 1518 1518 1519 1519 1519 1519 1519 1519 1520
1496 1497 1499 1502 1504 1506 1508 1509 1512 1515 1517 1518 1519 1521 1521 1522 1522 1523 1522 1522 1522 1522 1521 1520 1520 1519 1518 1518 1517 1517 1517 1517 1517 1517 1513 1515 1515 1515 1516 1516 1516 1517 1517
1490 1492 1495 1498 1500 1503 1505 1507 1510 1512 1515 1516 1518 1519 1520 1520 1521 1521 1521 1522 1521 1520 1520 1519 1518 1517 1517 1516 1516 1515 1515 1515 1515 1516 1511 1512 1513 1513 1513 1514 1514 1514 1515
1487 1488 1491 1493 1497 1500 1503 1505 1508 1510 1513 1514 1516 1517 1518 1519 1520 1520 1521 1521 1520 1519 1518 1518 1517 1517 1516 1515 1514 1513 1513 1513 1513 1515 1509 1510 1510 1510 1511 1511 1512 1512 1512
1485 1485 1486 1489 1493 1497 1501 1503 1505 1508 1510 1512 1514 1515 1516 1518 1519 1518 1519 1521 1520 1520 1518 1517 1517 1516 1516 1515 1514 1513 1512 1511 1511 1511 1511 1508 1508 1508 1508 1508 1508 1510 1511
1480 1482 1483 1486 1489 1494 1498 1501 1504 1506 1509 1511 1512 1513 1514 1515 1515 1518 1519 1519 1519 1520 1519 1518 1517 1516 1515 1514 1514 1513 1512 1511 1510 1511 1511 1510 1509 1506 1506 1505 1507 1506 1507
1476 1475 1477 1481 1485 1490 1494 1498 1500 1503 1505 1508 1510 1511 1511 1513 1514 1514 1516 1517 1518 1518 1519 1518 1518 1517 1515 1514 1512 1511 1510 1510 1508 1509 1509 1508 1507 1507 1505 1504 1503 1503 1504
1470 1471 1472 1476 1480 1486 1490 1494 1496 1499 1502 1504 1506 1507 1508 1509 1512 1513 1514 1515 1515 1517 1518 1517 1516 1516 1515 1513 1512 1510 1509 1509 1508 1508 1508 1507 1506 1505 1504 1503 1502 1501 1501
1465 1466 1469 1472 1476 1481 1485 1489 1492 1495 1497 1500 1502 1504 1507 1507 1509 1510 1512 1514 1514 1514 1514 1515 1515 1514 1513 1512 1513 1511 1511 1510 1509 1509 1508 1507 1505 1504 1503 1502 1502 1500 1499
1458 1461 1462 1466 1470 1474 1478 1482 1486 1489 1492 1495 1498 1501 1503 1505 1507 1508 1510 1511 1511 1512 1512 1513 1513 1512 1512 1511 1511 1511 1510 1509 1509 1509 1507 1506 1504 1503 1501 1500 1500 1498 1497
1450 1452 1456 1461 1464 1469 1474 1480 1484 1486 1489 1491 1494 1497 1500 1502 1504 1506 1507 1507 1509 1510 1509 1510 1510 1510 1509 1508 1510 1511 1510 1511 1510 1508 1508 1505 1503 1502 1501 1499 1497 1496 1495
1445 1447 1450 1454 1458 1464 1469 1474 1479 1483 1485 1488 1490 1493 1496 1500 1502 1504 1505 1505 1505 1506 1507 1508 1508 1508 1508 1507 1506 1507 1508 1507 1509 1508 1506 1504 1503 1501 1500 1499 1496 1494 1493
1440 1444 1447 1449 1452 1459 1464 1468 1470 1474 1480 1486 1489 1491 1493 1497 1499 1501 1502 1503 1504 1503 1504 1505 1505 1506 1505 1504 1504 1503 1504 1506 1508 1507 1506 1503 1501 1500 1497 1496 1496 1493 1491
1435 1438 1441 1445 1448 1451 1455 1461 1465 1471 1477 1480 1484 1486 1490 1494 1496 1497 1499 1501 1502 1502 1501 1502 1503 1502 1504 1502 1501 1501 1502 1503 1504 1506 1505 1503 1500 1497 1496 1494 1493 1493 1491
1432 1434 1436 1438 1442 1447 1450 1456 1461 1465 1467 1473 1479 1484 1488 1490 1493 1495 1496 1497 1499 1499 1499 1498 1499 1501 1499 1500 1499 1498 1498 1500 1502 1503 1504 1501 1500 1498 1495 1494 1493 1492 1491